Regional Weather Roundup
Issued by NWS

Home | Current Version | Previous Version | Text Only | Print | Product List | Glossary Off
Versions: 1 2 3 4 5 6 7 8 9 10 11 12 13 14 15 16 17 18 19 20 21 22 23 24 25 26 27 28 29 30 31 32 33 34 35 36 37 38 39 40 41 42 43 44 45 46 47 48 49 50

000
ASUS43 KDTX 242210
RWRMI
MICHIGAN HOURLY REGIONAL WEATHER ROUNDUP
NATIONAL WEATHER SERVICE DETROIT/PONTIAC MI
ISSUED BY NATIONAL WEATHER SERVICE GRAND RAPIDS MI
600 PM EDT WED MAY 24 2017

NOTE: "FAIR" INDICATES FEW OR NO CLOUDS BELOW 12,000 FEET WITH NO
SIGNIFICANT WEATHER AND/OR OBSTRUCTION TO VISIBILITY.

MIZ047>049-052>055-059>063-066>070-074>076-081>083-242300-
SOUTHEAST LOWER MICHIGAN

CITY           SKY/WX    TMP DP  RH WIND       PRES   REMARKS
ADRIAN         LGT RAIN  60  57  89 E16       29.51S
ALMA           LGT RAIN  58  56  93 NE8       29.58S
ANN ARBOR      CLOUDY    63  57  81 NE9       29.52S
BAD AXE        CLOUDY    60  54  81 NE8       29.62R
DETROIT CITY   RAIN      60  59  96 E12       29.55S FOG
DETROIT        LGT RAIN  62  59  90 E8        29.53F
FLINT          CLOUDY    66  52  60 E12       29.56R
GROSSE ILE     CLOUDY    61  57  87 E9        29.52S
HILLSDALE      LGT RAIN  59  55  88 NE8       29.51R
HOWELL         CLOUDY    64  51  64 E8        29.55S

CITY           SKY/WX    TMP DP  RH WIND       PRES   REMARKS
JACKSON        CLOUDY    61  57  87 NE7       29.53S
LANSING        LGT RAIN  63  56  78 NE9       29.56R
MASON          LGT RAIN  61  55  81 E5        29.54S
MONROE         LGT RAIN  60  57  91 E10G16    29.52S
MT. CLEMENS    LGT RAIN  60  60 100 E8        29.56S FOG
PONTIAC        CLOUDY    63  56  78 E8        29.54F
PORT HOPE        N/A     51  47  86 NE7       29.62S
PORT HURON     LGT RAIN  63  55  77 E8        29.59S
TRI CITIES     CLOUDY    59  53  80 NE21G26   29.59S
YPSILANTI      LGT RAIN  63  60  90 E16       29.53S FOG
$$
MIZ043>046-050>051-056>058-064>065-071>073-077>080-242300-
SOUTHWEST LOWER MICHIGAN

CITY           SKY/WX    TMP DP  RH WIND       PRES   REMARKS
BATTLE CREEK   LGT RAIN  61  59  93 NE7       29.53S
BENTON HARBOR  CLOUDY    59  54  83 N3        29.50R
BIG RAPIDS     CLOUDY    65  52  61 E13       29.58R
COLDWATER      LGT RAIN  60  58  94 E6        29.52S
HOLLAND        CLOUDY    69  55  60 E10       29.53R
GRAND RAPIDS   LGT RAIN  64  56  75 E16       29.54R
KALAMAZOO      RAIN      61  57  87 NE3       29.54S FOG
MARSHALL       LGT RAIN  62  55  78 E6        29.53S
MOUNT PLEASANT CLOUDY    65  52  62 NE8G16    29.58S
MUSKEGON       LGT RAIN  65  58  78 E6        29.54R
STURGIS        LGT RAIN  60  59  96 MISG      29.50F
$$
MIZ016>042-242300-
NORTHERN LOWER MICHIGAN

CITY           SKY/WX    TMP DP  RH WIND       PRES   REMARKS
ALPENA         CLOUDY    61  53  75 NE12      29.69S
BEAVER ISLAND  CLOUDY    55  51  86 NE9G16    29.71S
BELLAIRE       CLOUDY    63  51  66 NE8       29.66R
CADILLAC       CLOUDY    63  51  66 NE12G21   29.62S
CHARLEVOIX     CLOUDY    60  52  74 NE12      29.71R
GAYLORD        CLOUDY    61  51  70 NE14      29.67S
HOUGHTON LAKE  CLOUDY    64  52  64 E15       29.64S
MANISTEE       PTSUNNY   58  52  80 NW8       29.60S
OSCODA         CLOUDY    56  48  74 N13G22    29.66S
PELLSTON       CLOUDY    59  50  72 E9        29.70S
TRAVERSE CITY  CLOUDY    60  49  66 NE12      29.62S
LUDINGTON      CLOUDY    60  54  81 N10       29.58S
$$
MIZ007>008-015-242300-
EASTERN UPPER MICHIGAN

CITY           SKY/WX    TMP DP  RH WIND       PRES   REMARKS
KINROSS        CLOUDY    58  51  78 E12       29.73S
MACKINAC ISLAN MOSUNNY   56  53  88 NE8       29.70S
NEWBERRY       CLOUDY    57  51  79 NE12      29.72S
S. S. MARIE    CLOUDY    62  51  67 VRB5      29.73S
$$
MIZ004>006-011>014-085-242300-
CENTRAL UPPER MICHIGAN

CITY           SKY/WX    TMP DP  RH WIND       PRES   REMARKS
MANISTIQUE     CLOUDY    55  51  86 E7        29.71R
ESCANABA       CLOUDY    56  50  80 NE9       29.71S
MENOMINEE      CLOUDY    52  49  89 NE15      29.70S
SAWYER-GWINN   CLOUDY    50  45  81 NE14      29.75S
$$
MIZ001>003-009>011-084-242300-
WESTERN UPPER MICHIGAN

CITY           SKY/WX    TMP DP  RH WIND       PRES   REMARKS
IRON MOUNTAIN  CLOUDY    54  47  77 N8        29.71S
HOUGHTON       CLOUDY    54  44  69 E9        29.76F
COPPER HARBOR    N/A     49  38  65 CALM      29.77F
IRONWOOD       MOSUNNY   58  44  60 NE9       29.74F
$$

ABBREVIATIONS USED IN REMARKS
   TC - TEMPERATURE IN CELSIUS
  WCI - WIND CHILL INDEX
   HX - HEAT INDEX
  VSB - VISIBILITY





USA.gov is the U.S. government's official web portal to all federal, state and local government web resources and services.